Regional Weather Roundup
Issued by NWS Grand Forks, ND

Home | Current Version | Previous Version | Text Only | Print | Product List | Glossary Off
Versions: 1 2 3 4 5 6 7 8 9 10 11 12 13 14 15 16 17 18 19 20 21 22 23 24 25 26 27 28 29 30 31 32 33 34 35 36 37 38 39 40 41 42 43 44 45 46 47 48 49 50

000
ASUS43 KFGF 172331
RWRFGF
PRAIRIE TO PINES  WEATHER ROUNDUP
NATIONAL WEATHER SERVICE EASTERN NORTH DAKOTA/GRAND FORKS ND
500 PM CST SUN DEC 17 2017

 **SATELLITE DATA USED TO AUGMENT SKY COVER AT AUTOMATED STATIONS**
 *****  WEATHER ACROSS EASTERN NORTH DAKOTA  *****

CITY           SKY/WX    TMP DP  RH WIND       PRES   REMARKS
GRAND FORKS    FAIR      20  17  88 S8        29.85F WCI  10
GRAND FRKS AFB FAIR      21  15  78 S8        29.84F WCI  11
DEVILS LAKE    FAIR      31  23  72 S10       29.78F WCI  22
FARGO          FAIR      30  27  88 SE7       29.88F WCI  23
WAHPETON ARPT  CLOUDY    32  30  93 SE6       29.92F
$$

 ***** WEATHER ACROSS CENTRAL AND WESTERN NORTH DAKOTA  *****

CITY           SKY/WX    TMP DP  RH WIND       PRES   REMARKS
BISMARCK       FAIR      37  21  52 S7        29.80F
MINOT          FAIR      37  24  59 S12       29.69F
JAMESTOWN      FAIR      28  23  81 S7        29.82F WCI  21
MINOT AFB      FAIR      33  23  66 S8        29.67F
GARRISON         N/A     36  27  69 SW12      29.72F
WILLISTON      MOCLDY    36  19  50 SW9       29.69F
DICKINSON      FAIR      37  23  56 SW16      29.72F
HETTINGER      FAIR      33  21  61 SW8       29.78F
$$

 *****  OTHER AIRPORT OBSERVATIONS IN OUR AREA  *****

CITY           SKY/WX    TMP DP  RH WIND       PRES   REMARKS
WALHALLA       FAIR      28  19  69 SW8G14    29.77F WCI  20
GRAFTON AIRPOR NOT AVBL
VALLEY CITY AR NOT AVBL
CANDO          FAIR      23  23 100 S10       29.76F WCI  12
CAVALIER APRT  FAIR      19  14  79 S9        29.78F WCI   9
GWINNER          N/A     27  25  93 S8        29.88F WCI  18
SHEYENNE NWR     N/A     29  25  84 S7        29.95S WCI  22
ROLLA          FAIR      21  18  86 S8        29.69F WCI  12
 ***** THE ABOVE OBSERVATIONS ARE NON NWS ARE NOT QUALITY
       CONTROLLED AND MAY MIS-REPORT RAIN FOR SNOW...
$$

  *****  WEATHER ACROSS NORTHERN MINNESOTA  *****

CITY           SKY/WX    TMP DP  RH WIND       PRES   REMARKS
FLAG ISLAND    FAIR      12  10  92 S5        29.81F WCI   4
WARROAD        FAIR      21  18  86 SW8       29.84S WCI  12
ROSEAU         FAIR      16  10  79 S10       29.84S WCI   3
HALLOCK        FAIR      18  16  93 S14       29.82F WCI   4
THF RVR FALLS  LGT SNOW  25  23  93 S13       29.87F FOG     WCI  13
BAUDETTE       FAIR      24  19  81 CALM      29.84R
WASKISH        FAIR      25  23  93 SW3       29.87S
CROOKSTON      FOG       25  25 100 S9        29.88S VSB 1/2 WCI  15
$$
  *****  WEATHER ACROSS CENTRAL AND WEST MINNESOTA  *****

CITY           SKY/WX    TMP DP  RH WIND       PRES   REMARKS
FOSSTON        CLOUDY    25  25 100 S8        29.88F FOG     WCI  16
BEMIDJI        FAIR      24  22  91 S5        29.87F WCI  19
PARK RAPIDS    MOCLDY    22  20  92 S6        29.89F WCI  14
ELBOW LAKE     CLOUDY    29  28  98 S7        29.93S FOG     WCI  22
WADENA         MOCLDY    27  27 100 SW5       29.92S FOG     WCI  21
DETROIT LAKES  CLOUDY    28  28 100 SW8       29.90S FOG     WCI  20
MOORHEAD       FAIR      27  27 100 CALM      29.90F FOG
FERGUS FALLS   CLOUDY    28  28 100 S7        29.95S FOG     WCI  21
MORRIS MN      MOCLDY    28  28 100 SE6       29.93S FOG     WCI  22
STAPLES        CLOUDY    25  25 100 SW6       29.93S FOG     WCI  18
$$
  *****  WEATHER ELSEWHERE ACROSS MINNESOTA  *****

CITY           SKY/WX    TMP DP  RH WIND       PRES   REMARKS
DULUTH         CLOUDY    24  21  88 W5        29.91F WCI  18
INTRNTL FALLS  FAIR      22  18  85 SW6       29.85F WCI  14
ELY            CLOUDY    23  21  93 SW6       29.90S WCI  16
CLOQUET        CLOUDY    25  19  80 CALM      29.92F
WHEATON        FAIR      30  28  93 SE6       29.95S FOG     WCI  24
BRAINERD       CLOUDY    27  22  81 CALM      29.94S
HIBBING        CLOUDY    24  22  91 CALM      29.91F
ALEXANDRIA     CLOUDY    28  27  96 CALM      29.93S FOG
SAINT CLOUD    FAIR      24  20  84 SE3       29.96S
MINNEAPOLIS    CLOUDY    28  24  85 CALM      29.97F FOG
$$

  *****  WEATHER ACROSS SOUTH DAKOTA  *****

CITY           SKY/WX    TMP DP  RH WIND       PRES   REMARKS
SIOUX FALLS    FAIR      34  28  79 CALM      29.94S
BROOKINGS      CLOUDY    36  29  75 SW3       29.92F
WATERTOWN      CLOUDY    33  31  92 SW3       29.90S
HURON          CLOUDY    39  31  72 MISG      29.91F
SISSETON         N/A     33  31  92 SE5       29.91S
ABERDEEN       CLOUDY    33  28  81 S5        29.90F
MITCHELL       CLOUDY    40  29  64 S3        29.94F
PIERRE         CLOUDY    39  30  70 S8        29.87F
MOBRIDGE       FAIR      35  26  69 S7        29.83R
RAPID CITY     FAIR      38  24  57 NW9       29.81R
$$

  *****  SOME WEATHER IN NEARBY STATES *****

CITY           SKY/WX    TMP DP  RH WIND       PRES   REMARKS
GLASGOW MT     CLOUDY    36  27  69 W15       29.70S
GREAT FALLS MT FAIR      36  18  48 SW23G32   29.80R
CHEYENNE WY    FAIR      38  18  44 W22G35    29.85R
SCOTTSBLUFF NE FAIR      46  17  31 W20G30    29.84R
OMAHA NE       MOCLDY    30  24  78 NW8       30.00R WCI  22
DES MOINES IA  CLOUDY    37  31  78 S5        29.97R
DAVENPORT IA   LGT RAIN  39  35  86 CALM      30.00F
CHICAGO IL     CLOUDY    40  31  70 CALM      29.97S
EAU CLAIRE WI  CLOUDY    28  26  92 CALM      29.96F
LA CROSSE WI   LGT SNOW  32  29  88 CALM      29.99R FOG
$$

  *****  SOME NATIONAL WEATHER *****

CITY           SKY/WX    TMP DP  RH WIND       PRES   REMARKS
LA GUARDIA NY  MOCLDY    36  25  64 NE7       30.25R
RALEIGH NC     CLOUDY    48  35  60 SE3       30.20S
ATLANTA GA     CLOUDY    44  43  96 E10       30.15F
NEW ORLEANS LA CLOUDY    68  68 100 S5        30.09F
OKLAHOMA CITY  CLOUDY    45  43  93 S6        30.05R FOG
ALBUQUERQUE NM FAIR      51  11  20 SW5       29.99R
SALT LAKE CITY FAIR      37  24  59 N7        30.21R
LOS ANGELES CA FAIR      72  21  14 N13       29.92R
BOISE ID       CLOUDY    37  21  52 N5        30.22F
SEATTLE WA     CLOUDY    49  43  80 S16G26    30.02F
$$

*** WEATHER ACROSS MANITOBA...SASKATCHEWAN AND ONTARIO ***
                ***ONTARIO***

CITY           SKY/WX    TMP DP  RH WIND       PRES   REMARKS
GERALDTON      CLOUDY    27  25  93 SW10      29.83F WCI  17
THUNDER BAY    CLOUDY    28  25  86 W5        29.91F WCI  23
SIOUX LOOKOUT  FLURRIES  25  23  93 SW7       29.79S WCI  17
TORONTO        CLOUDY    19  14  79 E6        30.17F WCI  11
BIG TROUT LK   FLURRIES  18  16  93 SW8       29.63F WCI   7
PICKLE LAKE    LGT SNOW  23  21  93 SW12      29.71S WCI  12
DRYDEN         CLOUDY    25  23  93 SW10      29.79S WCI  15
KENORA         PTCLDY    19  18  93 S8        29.79  WCI   9
$$
                *** MANITOBA***

CITY           SKY/WX    TMP DP  RH WIND       PRES   REMARKS
BRANDON        MOCLDY    28  18  64 SW13      29.65F WCI  18
DAUPHIN        CLEAR     30  19  64 SW15G21   29.57F WCI  19
ISLAND LAKE    PTCLDY    21  19  93 VRB2      29.53F
PILOT MOUND      N/A     18  14  86 S12         N/A  WCI   5
THE PAS        CLOUDY    27  19  74 S13       29.35F WCI  16
THOMPSON       CLOUDY    16  14  93 VRB2      29.34F FOG
WINNIPEG       PTCLDY    18  12  79 S12       29.76F WCI   5
LYNN LAKE      FLURRIES  14  14 100 SE8       29.17F WCI   3
CHURCHILL      CRYSTALS   0  -4  85 S7        29.50F WCI -13
GILLAM         FLURRIES  10   7  85 S5        29.47F WCI   2
$$
                ***SASKATCHEWAN***

CITY           SKY/WX    TMP DP  RH WIND       PRES   REMARKS
ESTEVAN        CLOUDY    32  23  69 SW16      29.64S WCI  21
KINDERSLEY     CLOUDY    32  23  69 W8        29.55R WCI  25
LLOYDMINSTER   PTCLDY    36  27  69 W15       29.43R
PRINCE ALBERT  NOT AVBL
REGINA         PTCLDY    28  23  80 SW13      29.58R WCI  18
YORKTON        CLOUDY    30  23  74 SW12G17   29.52F WCI  21
N. BATTLEFORD  MOCLDY    34  23  64 W13G18    29.46R WCI  25
LA RONGE       MOCLDY    32  25  74 SW10      29.22S WCI  24
SASKATOON      MOCLDY    30  25  80 SW15      29.47F WCI  19
SWIFT CURRENT  MOCLDY    32  27  80 SW20      29.56F WCI  20
$$
NOTE: THESE ARE AUTOMATED STATIONS WITH LIMITED QUALITY CONTROL
      "FAIR" INDICATES FEW OR NO CLOUDS BELOW 12,000 FEET WITH NO
      SIGNIFICANT WEATHER AND/OR OBSTRUCTIONS TO VISIBILITY.
      SKY/WX - SKY CONDITION AND SIGNIFICANT WEATHER.
      TMP - AIR TEMPERATURE.    DP   - DEWPOINT TEMPERATURE.
      RH  - RELATIVE HUMIDITY.  PRES - PRESSURE.
      HX  - HEAT INDEX.         WCI  - WIND CHILL INDEX.
$



USA.gov is the U.S. government's official web portal to all federal, state and local government web resources and services.